Location: Kuffner-Sternwarte
(48.2130°N, 16.2960°E)
Time: 04:52:21
(UTC+02:00)

COROT - Pass Details

Date: 20 May 2017
Orbit: 602 x 888 km, 90.0° (Epoch: 26 July)

Event Time Altitude Azimuth Distance (km) Brightness Sun altitude
Rises 23:27:23 0° 347° (NNW) 3,252 10.9 -19.1°
Reaches altitude 10° 23:30:51 10° 323° (NW) 2,254 9.5 -19.3°
Maximum altitude 23:33:22 14° 293° (WNW) 1,934 8.6 -19.4°
Drops below altitude 10° 23:35:48 10° 262° (W) 2,152 8.4 -19.6°
Sets 23:38:59 0° 237° (WSW) 3,003 8.9 -19.7°
